Location: Kings Worthy
(51.0833°N, 1.3000°W)
Time: 20:27:40
(UTC+00:00)

Daily predictions for brighter satellites

Satellite Brightness Start Highest point End
(mag) Time Altitude Azimuth Time Altitude Azimuth Time Altitude Azimuth
Cosmos 1844 Rocket 2.8 20:36:37 10° SSW 20:42:18 88° WNW 20:48:01 10° NNE
STARLINK-1081 3.7 20:39:53 10° WNW 20:44:02 75° SSW 20:48:10 10° ESE
STARLINK-1096 4.0 20:42:06 10° WNW 20:46:15 69° N 20:50:23 10° E
STARLINK-1234 3.3 20:44:27 10° SW 20:47:24 40° SSE 20:50:22 10° E
STARLINK-1104 3.9 20:44:11 10° W 20:48:19 72° N 20:52:29 10° ENE
STARLINK-1212 3.6 20:45:59 10° SSW 20:48:49 32° SSE 20:51:39 10° E
STARLINK-1070 3.7 20:44:51 10° WNW 20:48:59 72° SSW 20:53:06 10° ESE
IGS 5A 3.7 20:44:59 10° SSE 20:49:02 56° ENE 20:53:08 10° N
STARLINK-1209 3.2 20:46:09 10° SW 20:49:09 43° SSE 20:52:10 10° ENE
STARLINK-1105 3.5 20:46:28 10° SSW 20:49:17 33° SSE 20:52:07 10° E
Cosmos 1300 Rocket 4.5 20:45:54 10° N 20:50:01 35° ENE 20:54:07 10° SE
STARLINK-1247 3.5 20:47:20 10° SW 20:50:11 33° SSE 20:53:03 10° E
Cosmos 2084 Rocket 3.4 20:46:18 10° SW 20:50:34 69° SE 20:54:55 10° NE
STARLINK-1227 3.5 20:47:48 10° SW 20:50:39 33° SSE 20:53:29 10° E
Crew Dragon 0.0 20:49:01 10° W 20:51:06 73° N 20:53:18 10° E
STARLINK-1079 3.9 20:47:02 10° WNW 20:51:11 70° N 20:55:20 10° E
STARLINK-1226 3.5 20:48:39 10° SW 20:51:30 34° SSE 20:54:22 10° E
Cosmos 407 Rocket 3.7 20:46:11 10° NNW 20:51:31 76° WSW 20:56:52 10° SSE
Cosmos 1515 3.9 20:48:06 10° S 20:51:49 53° E 20:55:33 10° NNE
STARLINK-1215 3.5 20:49:35 10° SW 20:52:27 34° SSE 20:55:19 10° E
Okean 3 4.4 20:48:55 10° SSE 20:52:44 32° E 20:56:35 10° NNE
STARLINK-1144 4.0 20:49:11 10° W 20:53:20 70° N 20:57:28 10° ENE
STARLINK-1069 3.7 20:49:49 10° WNW 20:53:56 68° SSW 20:58:03 10° ESE
STARLINK-1217 3.4 20:51:19 10° SW 20:54:12 35° SSE 20:57:06 10° E
Cosmos 724 4.5 20:49:10 10° NW 20:55:01 72° SW 21:00:57 10° SSE
STARLINK-1229 3.4 20:52:13 10° SW 20:55:07 36° SSE 20:58:01 10° E
USA 245 2.9 20:51:42 10° SSE 20:55:20 70° ENE 20:58:16 10° N
MOS 1 Rocket 4.5 20:51:28 10° N 20:55:50 45° WNW 21:00:00 10° SW
STARLINK-1270 3.4 20:53:04 10° SW 20:55:58 36° SSE 20:58:53 10° E
STARLINK-1116 3.9 20:52:03 10° WNW 20:56:12 71° N 21:00:21 10° E
STARLINK-1189 3.4 20:54:54 10° SW 20:57:49 37° SSE 21:00:44 10° E
STARLINK-1103 4.0 20:54:10 10° W 20:58:18 69° N 21:02:27 10° ENE
STARLINK-1188 3.4 20:55:45 10° SW 20:58:41 38° SSE 21:01:37 10° E
STARLINK-1085 3.7 20:54:49 10° WNW 20:58:56 65° SSW 21:03:02 10° SE
STARLINK-1235 3.1 20:56:21 10° SW 20:59:20 46° SSE 21:02:19 10° ENE
Cosmos 2221 Rocket 4.3 20:55:30 10° SSE 20:59:36 36° E 21:03:47 10° NNE
STARLINK-1187 3.2 20:56:49 10° SW 20:59:46 42° SSE 21:02:43 10° ENE
Okean 1-7 3.0 20:55:37 10° S 20:59:55 90° NE 21:04:13 10° N
NOSS 2-3 (D) 4.1 20:55:55 10° SSW 20:59:58 41° ESE 21:04:44 10° NE
COSMOS 2406 3.3 20:54:11 10° NNW 21:00:00 90° NNW 21:05:47 10° SSE
STARLINK-1191 3.3 20:58:13 10° SW 21:01:09 39° SSE 21:04:04 10° E
STARLINK-1221 3.3 20:59:06 10° SW 21:02:01 40° SSE 21:04:57 10° E
STARLINK-1222 3.3 20:59:58 10° SW 21:02:54 40° SSE 21:05:51 10° E
STARLINK-1198 4.4 20:59:28 10° SSW 21:03:06 29° SE 21:06:42 10° E
STARLINK-1101 4.0 20:59:09 10° W 21:03:17 68° N 21:07:26 10° ENE
STARLINK-1214 3.2 21:00:52 10° SW 21:03:49 41° SSE 21:06:46 10° ENE
STARLINK-1086 3.8 20:59:48 10° WNW 21:03:54 61° SSW 21:07:56 10° SE
Abrixas rocket 2.5 21:03:03 10° SW 21:05:48 36° SSE 21:08:33 10° E
Cosmos 1844 4.0 21:00:10 10° SW 21:05:50 76° WNW 21:11:38 10° NNE
Meteor 2-4 Rocket 3.9 21:00:41 10° SSE 21:05:51 50° E 21:11:01 10° NNE
Resurs 01 Rocket 2.8 21:01:42 10° S 21:05:56 42° W 21:10:12 10° NNW
STARLINK-1094 3.8 21:02:01 10° WNW 21:06:11 74° NNE 21:10:20 10° E
CREW DRAGON DEMO-1 DEB 4.5 21:04:05 10° W 21:06:37 23° SSW 21:09:01 11° SSE
USA 215 3.7 21:01:01 10° E 21:07:29 65° NNE 21:13:57 10° WNW
STARLINK-1199 4.3 21:04:23 10° SSW 21:08:04 31° SE 21:11:45 10° E
SPOT 1/Viking Rocket 3.6 21:02:57 10° SSE 21:08:07 76° ENE 21:13:18 10° NNW
STARLINK-1102 4.0 21:04:10 10° W 21:08:19 67° N 21:12:26 10° ENE
STARLINK-1095 3.8 21:04:47 10° WNW 21:08:52 58° SSW 21:12:43 11° SE
Sich 1 Rocket 3.7 21:04:18 10° N 21:08:55 90° SE 21:13:31 10° S
USA 229 DEB 3.7 21:04:05 10° SW 21:10:39 86° SE 21:17:38 10° NE
USA 229 3.7 21:04:12 10° SW 21:10:46 85° SE 21:17:44 10° NE
STARLINK-1117 3.8 21:07:01 10° WNW 21:11:10 76° NNE 21:15:19 10° E
Meteor 1-4 Rocket 2.4 21:08:21 10° S 21:11:46 67° E 21:15:13 10° NNE
STARLINK-1210 4.2 21:09:16 10° SSW 21:12:59 34° SE 21:16:45 10° E
STARLINK-1111 4.0 21:09:09 10° W 21:13:17 67° N 21:17:25 10° E
Cosmos 1190 Rocket 4.4 21:08:19 10° NNW 21:13:27 61° WSW 21:18:35 10° S
STARLINK-1077 3.9 21:09:46 10° WNW 21:13:49 54° SSW 21:17:29 12° SE
STARLINK-1078 3.7 21:11:59 10° WNW 21:16:09 78° NNE 21:20:18 10° E
SPOT 5 3.3 21:12:28 11° SSE 21:17:22 61° ENE 21:22:37 10° N
Cosmos 1782 Rocket 4.4 21:13:05 10° NNW 21:17:26 52° W 21:21:47 10° S
STARLINK-1219 4.2 21:14:09 10° SSW 21:17:56 36° SE 21:21:46 10° ENE
STARLINK-1073 4.0 21:14:09 10° W 21:18:17 66° N 21:22:25 10° E
Cosmos 1624 Rocket 4.0 21:13:08 10° SSW 21:18:26 75° ESE 21:23:47 10° NNE
NOSS 3-1 (C) 3.5 21:13:02 10° SW 21:18:41 83° NW 21:25:21 10° NE
STARLINK-1075 4.0 21:14:45 10° WNW 21:18:48 51° SSW 21:22:16 13° SE
OPS 8737 4.2 21:15:26 10° SSW 21:18:56 62° SE 21:21:50 10° NE
NOSS 3-1 (A) 3.3 21:14:10 10° SSW 21:19:42 72° SE 21:26:15 10° NE
ATLAS CENTAUR R/B 2.3 21:18:08 10° W 21:20:18 32° NNW 21:22:00 10° NE
STARLINK-1108 3.7 21:16:58 10° WNW 21:21:08 80° NNE 21:25:17 10° ESE
Cosmos 2279 Rocket 4.1 21:16:17 10° N 21:22:34 73° ENE 21:28:35 11° SSE
STARLINK-1211 4.1 21:19:02 10° SW 21:22:53 38° SE 21:26:45 10° ENE
STARLINK-1121 4.0 21:19:07 10° W 21:23:15 66° N 21:27:24 10° E
Aureole 1 Rocket 3.9 21:19:41 10° NW 21:23:27 46° WSW 21:28:16 10° S
STARLINK-1093 4.0 21:19:45 10° WNW 21:23:46 48° SSW 21:27:04 14° SE
Cosmos 1140 Rocket 4.1 21:20:21 10° NNW 21:25:25 54° WSW 21:30:28 10° S
Okean 2 Rocket 3.1 21:21:36 10° N 21:26:06 85° E 21:30:13 12° S
STARLINK-1071 3.7 21:21:57 10° WNW 21:26:07 82° NNE 21:30:17 10° ESE
CENTAUR R/B 4.3 21:19:48 10° NW 21:26:33 37° NNE 21:34:10 10° E
STARLINK-1245 4.0 21:23:58 10° SW 21:27:51 41° SSE 21:31:46 10° ENE
STARLINK-1106 4.0 21:24:07 10° W 21:28:15 66° N 21:32:23 10° E
STARLINK-1074 4.1 21:24:44 10° WNW 21:28:43 45° SSW 21:31:51 15° SE
Cosmos 1544 4.3 21:26:29 10° NNW 21:29:55 39° W 21:33:18 10° SSW
STARLINK-1110 3.6 21:26:09 10° WNW 21:30:19 85° NNE 21:34:29 10° ESE
BREEZE-M DEB (TANK) 4.4 21:10:31 10° WNW 21:30:32 77° SSW 21:35:38 10° ESE
NOSS 2-3 (C) 3.7 21:26:17 10° SW 21:30:37 73° SE 21:35:53 10° NE
SAR-Lupe-2 3.8 21:27:56 10° NNE 21:31:33 75° WNW 21:35:08 10° SSW
Cosmos 1371 Rocket 4.2 21:27:05 10° SSW 21:32:21 79° WNW 21:37:37 10° NNE
STARLINK-1233 3.9 21:28:52 10° SW 21:32:48 43° SSE 21:36:45 10° ENE
STARLINK-1112 4.0 21:29:07 10° W 21:33:15 66° N 21:37:24 10° E
Cosmos 1850 Rocket 4.4 21:28:48 10° NNW 21:34:06 58° ENE 21:38:31 15° SE
ERBS 3.6 21:32:41 14° S 21:34:22 20° SE 21:36:54 10° E
STARLINK-1124 3.6 21:31:55 10° WNW 21:36:06 88° NNE 21:40:13 10° ESE
Landsat 7 4.4 21:31:38 10° S 21:36:18 54° W 21:41:00 10° NNW
Cosmos 1634 Rocket 4.5 21:31:00 10° NNW 21:37:12 61° W 21:43:25 10° S
STARLINK-1204 3.8 21:33:48 10° SW 21:37:46 46° SSE 21:41:45 10° ENE
STARLINK-1128 4.0 21:34:07 10° W 21:38:15 66° N 21:42:23 10° E
STARLINK-1088 4.3 21:34:43 10° WNW 21:38:37 40° SSW 21:41:24 17° SSE
Cosmos 2151 Rocket 3.6 21:34:32 10° N 21:39:06 82° ENE 21:42:53 15° SSE
Cosmos 2082 Rocket 2.3 21:33:50 10° NNW 21:39:36 77° ENE 21:44:18 16° SE
Cosmos 1954 Rocket 4.4 21:35:28 10° NNW 21:40:39 61° WSW 21:45:18 13° S
STARLINK-1122 3.6 21:36:54 10° WNW 21:41:05 89° S 21:45:00 11° ESE
STARLINK-1238 3.8 21:38:42 10° SW 21:42:42 49° SSE 21:46:43 10° ENE
STARLINK-1113 4.0 21:39:06 10° W 21:43:14 66° N 21:47:22 10° E
STARLINK-1115 4.4 21:39:43 10° WNW 21:43:34 38° SW 21:46:11 18° SSE
Okean 1 Rocket 3.7 21:39:23 10° N 21:43:43 45° ENE 21:46:51 17° SE
Intercosmos 24 3.9 21:40:17 10° NNW 21:44:13 66° W 21:47:11 14° S
ERS-1 Rocket 3.1 21:40:28 12° S 21:45:04 73° WSW 21:50:08 10° NNW
SeaSat 1 3.6 21:41:37 10° NE 21:45:43 25° ESE 21:48:18 17° SSE
STARLINK-1126 3.6 21:41:51 10° WNW 21:46:00 86° SSW 21:49:45 13° ESE
STARLINK-1201 3.7 21:43:40 10° SW 21:47:41 52° SSE 21:51:44 10° ENE
STARLINK-1119 4.0 21:44:05 10° W 21:48:13 66° N 21:52:22 10° E
Cosmos 1833 Rocket 2.9 21:42:43 10° NW 21:48:17 64° WSW 21:52:51 15° SSE
STARLINK-1076 4.5 21:44:43 10° WNW 21:48:31 35° SW 21:50:58 19° SSE
SL-4 R/B 1.2 21:47:32 10° NW 21:50:48 88° WSW 21:52:33 23° SE
STARLINK-1082 3.6 21:46:53 10° WNW 21:51:02 83° SSW 21:54:34 14° ESE
Cosmos 1805 4.4 21:47:33 10° N 21:51:05 31° ENE 21:53:26 17° SE
Aureole 2 Rocket 4.2 21:51:13 14° ESE 21:51:22 14° ESE 21:53:06 10° ENE
Meteor 1-15 Rocket 4.5 21:45:31 10° N 21:51:27 68° ENE 21:56:05 17° SSE
STARLINK-1206 3.6 21:48:36 10° SW 21:52:38 55° SSE 21:56:43 10° ENE
STARLINK-1114 4.0 21:49:05 10° W 21:53:14 67° N 21:57:23 10° E
STARLINK-1100 3.5 21:51:51 10° WNW 21:56:00 80° SSW 21:59:21 15° ESE
Cosmos 332 Rocket 4.2 21:52:44 15° S 21:56:26 44° ESE 22:01:05 10° NE
STARLINK-1205 3.6 21:53:32 10° SW 21:57:37 59° SSE 22:01:42 10° ENE
STARLINK-1130 (DARKSAT) 4.0 21:54:03 10° WNW 21:58:12 68° N 22:02:21 10° E
ISS -3.8 21:55:54 10° W 21:59:16 65° SSW 22:01:21 21° ESE
STARLINK-1083 3.5 21:56:50 10° WNW 22:00:58 76° SSW 22:04:07 17° ESE
Cosmos 2056 Rocket 4.2 21:56:04 10° SW 22:01:05 55° WNW 22:06:08 10° NNE
STARLINK-67 2.9 21:59:12 10° WNW 22:01:06 42° N 22:02:31 15° ENE
Cosmos 1066 Rocket 4.4 21:58:19 17° SSE 22:02:20 52° E 22:07:33 10° NNE
STARLINK-1218 3.6 21:58:29 10° SW 22:02:34 62° SSE 22:06:40 10° ENE
STARLINK-1084 3.9 21:59:03 10° WNW 22:03:11 68° N 22:07:20 10° E
Cosmos 1378 4.2 22:02:29 21° SE 22:04:04 29° E 22:07:20 10° NNE
STARLINK-1125 3.6 22:01:48 10° WNW 22:05:56 73° SSW 22:08:54 18° ESE
STARLINK-1254 3.5 22:03:26 10° SW 22:07:33 65° SSE 22:11:40 10° ENE
STARLINK-1098 3.9 22:04:03 10° WNW 22:08:12 69° N 22:12:21 10° E
CARTOSAT-1 4.4 22:05:21 13° SSW 22:08:55 43° W 22:13:04 10° NNW
Cosmos 1943 Rocket 3.8 22:07:35 14° ESE 22:09:25 17° E 22:12:51 10° ENE
STARLINK-1109 3.6 22:06:47 10° WNW 22:10:55 69° SSW 22:13:40 20° SE
SL-8 R/B 3.7 22:06:37 10° W 22:11:24 65° S 22:16:11 10° E
STARLINK-1231 3.5 22:08:25 10° WSW 22:12:32 69° SSE 22:16:40 10° ENE
STARLINK-1123 3.9 22:09:02 10° WNW 22:13:11 71° N 22:17:20 10° E
Cosmos 1437 Rocket 2.6 22:12:22 18° SSW 22:15:06 90° W 22:18:56 10° NNE
Cosmos 2278 Rocket 2.4 22:10:01 10° SW 22:15:42 76° WNW 22:21:26 10° NNE
STARLINK-1091 3.6 22:11:45 10° WNW 22:15:53 66° SSW 22:18:27 22° SE
STARLINK-1232 3.5 22:13:23 10° WSW 22:17:30 72° SSE 22:21:39 10° ENE
STARLINK-1097 3.8 22:14:01 10° WNW 22:18:10 72° N 22:22:19 10° E
STARLINK-1224 4.4 22:18:40 23° S 22:20:05 29° SE 22:23:41 10° E
STARLINK-1228 3.3 22:17:00 10° W 22:20:19 69° N 22:23:38 10° ENE
STARLINK-1072 3.6 22:16:45 10° WNW 22:20:51 62° SSW 22:23:14 24° SE
Terra 2.3 22:17:24 17° S 22:20:54 54° W 22:25:36 10° NNW
Lacrosse 5 2.1 22:16:06 10° WNW 22:21:02 55° SW 22:24:01 23° SSE
ALOS 2 4.2 22:19:22 14° ESE 22:22:13 26° ENE 22:25:50 10° N
STARLINK-1208 3.5 22:18:19 10° WSW 22:22:28 76° SSE 22:26:37 10° ENE
STARLINK-1099 3.8 22:18:59 10° WNW 22:23:08 74° N 22:27:17 10° E
STARLINK-1234 3.2 22:20:02 10° W 22:23:08 67° NNW 22:26:16 10° ENE
STARLINK-1212 3.0 22:21:23 10° W 22:24:29 74° NNW 22:27:36 10° ENE
Crew Dragon 1.0 22:22:40 10° W 22:24:19 33° SW 22:24:19 33° SW
STARLINK-1105 3.0 22:21:52 10° W 22:24:57 73° NNW 22:28:04 10° ENE
STARLINK-1225 4.3 22:23:26 23° S 22:25:02 31° SE 22:28:43 10° E
STARLINK-1209 3.3 22:21:57 10° W 22:25:05 66° N 22:28:14 10° ENE
Thor Agena Rocket 4.1 22:19:59 10° NNE 22:25:06 45° E 22:28:05 23° SSE
STARLINK-1096 3.7 22:21:46 10° WNW 22:25:51 59° SSW 22:28:03 25° SE
STARLINK-1247 3.0 22:22:45 10° W 22:25:52 73° NNW 22:28:59 10° ENE
STARLINK-1227 3.0 22:23:14 10° W 22:26:19 73° NNW 22:29:26 10° ENE
Spot 4 4.3 22:23:24 21° SE 22:26:26 53° ENE 22:31:10 10° N
STARLINK-1226 3.1 22:24:05 10° W 22:27:11 72° NNW 22:30:18 10° ENE
STARLINK-1271 3.5 22:23:19 10° WSW 22:27:27 79° SSE 22:31:37 10° ENE
STARLINK-1104 3.8 22:23:58 10° WNW 22:28:08 75° NNE 22:32:17 10° E
STARLINK-1215 3.1 22:25:01 10° W 22:28:08 72° N 22:31:15 10° ENE
STARLINK-1217 3.1 22:26:47 10° W 22:29:54 71° NNW 22:33:01 10° ENE
STARLINK-1230 4.3 22:28:13 23° S 22:29:59 33° SE 22:33:43 10° E
BREEZE-M DEB (TANK) 3.9 22:15:36 10° SW 22:30:08 53° SSE 22:34:07 10° E
STARLINK-1079 3.7 22:26:42 10° WNW 22:30:47 56° SSW 22:32:47 27° SE
STARLINK-1229 3.1 22:27:42 10° W 22:30:49 70° NNW 22:33:57 10° ENE
STARLINK-1270 3.1 22:28:34 10° W 22:31:41 70° NNW 22:34:48 10° ENE
Cosmos 1452 Rocket 3.6 22:26:41 10° SSW 22:31:57 78° WNW 22:37:17 10° NNE
SL-4 R/B 2.7 22:31:54 17° ENE 22:32:06 18° ENE 22:33:43 10° NNE
STARLINK-1154 3.5 22:28:17 10° WSW 22:32:26 83° SSE 22:36:36 10° ENE
STARLINK-1144 3.7 22:28:58 10° WNW 22:33:08 77° NNE 22:37:17 10° E
MTI 4.2 22:30:10 10° N 22:33:16 57° WNW 22:35:10 21° SW
STARLINK-1189 3.1 22:30:25 10° W 22:33:31 69° NNW 22:36:39 10° ENE
STARLINK-1188 3.1 22:31:17 10° W 22:34:24 69° NNW 22:37:32 10° ENE
STARLINK-1243 4.2 22:32:59 22° SSW 22:34:56 35° SE 22:38:43 10° ENE
STARLINK-1235 3.3 22:32:02 10° W 22:35:07 64° N 22:38:12 10° ENE
STARLINK-1187 3.2 22:32:26 10° W 22:35:31 66° N 22:38:37 10° ENE
STARLINK-1116 3.8 22:31:43 10° WNW 22:35:45 53° SSW 22:37:35 29° SSE
Cosmos 1766 3.2 22:32:34 10° N 22:36:34 79° E 22:38:27 30° SSE
STARLINK-1191 3.2 22:33:47 10° W 22:36:53 68° N 22:39:59 10° ENE
STARLINK-1197 3.5 22:33:15 10° WSW 22:37:25 86° SSE 22:41:35 10° ENE
SL-27 R/B 4.1 22:34:28 10° N 22:37:37 27° ENE 22:39:37 17° ESE
STARLINK-1221 3.2 22:34:39 10° W 22:37:45 67° N 22:40:51 10° ENE
STARLINK-1103 3.7 22:33:57 10° WNW 22:38:07 79° NNE 22:42:11 10° ESE
STARLINK-1222 3.2 22:35:33 10° W 22:38:38 67° N 22:41:44 10° ENE
STARLINK-1214 3.2 22:36:28 10° W 22:39:34 66° N 22:42:39 10° ENE
STARLINK-1236 4.1 22:37:45 22° SSW 22:39:53 37° SE 22:43:44 10° ENE
Abrixas rocket 2.0 22:38:12 10° W 22:41:04 49° S 22:41:15 48° S
Cosmos 1953 4.5 22:38:47 10° NNE 22:41:27 17° ENE 22:43:45 11° ESE
STARLINK-1198 3.5 22:38:12 10° WSW 22:42:22 89° SE 22:46:32 10° ENE
STARLINK-1101 3.6 22:38:55 10° WNW 22:43:05 82° NNE 22:46:57 12° ESE
Cosmos 371 Rocket 3.8 22:39:10 10° SW 22:43:58 61° WNW 22:48:49 10° NNE
Cosmos 1461 3.4 22:43:04 30° SSE 22:44:30 41° ESE 22:48:36 10° NE
Cosmos 1674 Rocket 4.4 22:41:53 13° SSW 22:45:33 47° WNW 22:49:50 10° N
STARLINK-1094 4.0 22:41:42 10° WNW 22:45:41 46° SSW 22:47:09 32° SSE
deb Kosmos-1763 4.2 22:43:35 10° NNW 22:47:09 60° WSW 22:48:29 34° S
STARLINK-1199 3.6 22:43:13 10° WSW 22:47:23 88° N 22:51:33 10° ENE
Cosmos 1271 Rocket 4.5 22:46:32 17° ESE 22:47:30 19° E 22:50:14 10° NE
STARLINK-1102 3.6 22:43:55 10° WNW 22:48:05 84° NNE 22:51:45 13° ESE
Meteor 1-23 Rocket 4.5 22:43:15 15° SSW 22:48:06 70° WNW 22:53:47 10° N
Cosmos 2026 Rocket 4.2 22:45:53 23° SSE 22:49:46 62° E 22:56:01 10° NNE
STARLINK-1269 3.9 22:47:16 20° SSW 22:49:47 42° SSE 22:53:43 10° ENE
Aureole 3 Rocket 4.2 22:44:55 10° N 22:49:51 55° ENE 22:54:05 22° SSE
Cosmos 1758 4.5 22:46:31 10° N 22:50:12 33° ENE 22:52:04 22° ESE
USA 215 3.3 22:45:48 20° SE 22:50:33 65° SW 22:57:05 10° WNW
STARLINK-1117 4.0 22:46:41 10° WNW 22:50:39 44° SSW 22:51:56 33° SSE
STARLINK-1210 3.6 22:48:11 10° WSW 22:52:21 85° NNW 22:56:31 10° ENE
Cosmos 1378 Rocket 4.2 22:49:37 16° SSW 22:52:57 52° WNW 22:57:17 10° N
STARLINK-1111 3.6 22:48:54 10° WNW 22:53:04 87° NNE 22:56:31 15° ESE
STARLINK-1200 3.8 22:52:04 19° SW 22:54:45 45° SSE 22:58:44 10° ENE
Cosmos 1707 4.4 22:53:56 18° ESE 22:55:01 21° E 22:57:58 10° NE
Cosmos 1900 4.5 22:50:14 10° NW 22:55:16 73° NE 22:58:30 22° SE
STARLINK-1078 4.1 22:51:41 10° WNW 22:55:35 41° SSW 22:56:43 33° S
Cosmos 1733 3.1 22:52:03 10° NNW 22:55:54 82° W 22:57:26 35° S
STARLINK-1219 3.6 22:53:10 10° WSW 22:57:19 83° NNW 23:01:30 10° ENE
NOSS 2-2 (D) 3.9 22:57:13 32° SE 22:57:33 32° ESE 23:01:08 10° ENE
STARLINK-1073 3.5 22:53:53 10° WNW 22:58:04 89° ENE 23:01:18 16° ESE
NOSS 3-2 (C) 4.3 22:51:17 10° NW 22:58:28 65° NE 23:06:42 10° ESE
STARLINK-1192 3.8 22:56:50 17° SW 22:59:43 48° SSE 23:03:43 10° ENE
Meteor 1-22 Rocket 4.4 22:54:14 10° NNW 23:00:17 77° W 23:03:47 25° S
STARLINK-1108 4.2 22:56:40 10° WNW 23:00:33 39° SW 23:01:30 33° S
NOSS 8 (H) 4.3 23:00:43 47° SE 23:00:52 48° SE 23:03:52 10° NE
STARLINK-1211 3.7 22:58:08 10° WSW 23:02:17 80° NNW 23:06:28 10° ENE
STARLINK-1121 3.5 22:58:51 10° WNW 23:03:01 87° SSW 23:06:04 18° ESE
Cosmos 1975 Rocket 3.0 23:00:54 30° S 23:03:03 77° E 23:07:30 10° NNE
Nadezhda 4 Rocket 4.5 22:58:09 14° SSW 23:03:30 57° WNW 23:09:33 10° N
STARLINK-1244 3.7 23:01:35 16° SW 23:04:39 51° SSE 23:08:41 10° ENE
STARLINK-1071 4.3 23:01:40 10° WNW 23:05:30 36° SW 23:06:17 33° S
STARLINK-1245 3.7 23:03:08 10° W 23:07:17 78° NNW 23:11:28 10° ENE
STARLINK-1106 3.5 23:03:50 10° WNW 23:08:00 84° SSW 23:10:51 20° ESE
STARLINK-1138 3.6 23:06:22 15° SW 23:09:38 54° SSE 23:13:41 10° ENE
STARLINK-1110 4.3 23:05:54 10° W 23:09:40 34° SW 23:10:18 32° SSW
ERBS 2.4 23:07:03 10° WSW 23:10:21 73° NNW 23:13:41 10° ENE
TSX-5 4.4 23:06:21 12° SW 23:11:45 81° WNW 23:16:11 10° NNE
Cosmos 2297 3.7 23:07:18 17° SSW 23:11:48 88° WNW 23:17:34 10° NNE
STARLINK-1203 3.6 23:08:10 12° SW 23:12:01 57° SSE 23:16:10 10° ENE
STARLINK-1233 3.7 23:08:07 10° W 23:12:16 76° NNW 23:16:26 10° ENE
Cosmos 1242 Rocket 3.2 23:11:36 35° SE 23:12:28 43° E 23:15:58 10° NNE
STARLINK-1112 3.5 23:08:49 10° WNW 23:12:59 81° SSW 23:15:39 21° ESE
ATLAS 3B R/B 3.8 23:08:04 10° NW 23:14:28 43° NNE 23:21:02 10° E
STARLINK-1143 3.6 23:11:10 14° SW 23:14:36 57° SSE 23:18:40 10° ENE
STARLINK-1124 4.4 23:11:43 10° W 23:15:24 32° SW 23:15:51 31° SSW
NOSS 2-2 (E) 3.2 23:15:11 38° S 23:16:22 60° SE 23:20:30 10° NE
STARLINK-1204 3.8 23:13:07 10° W 23:17:16 74° NNW 23:21:26 10° ENE
STARLINK-1128 3.5 23:13:49 10° WNW 23:17:58 78° SSW 23:20:26 23° ESE
CENTAUR R/B 3.4 23:10:47 10° NW 23:18:34 71° NE 23:27:16 10° SE
Cosmos 1470 2.7 23:15:22 10° N 23:19:16 74° ENE 23:20:37 39° SSE
STARLINK-1241 3.6 23:15:53 13° SW 23:19:34 61° SSE 23:23:39 10° ENE
STARLINK-1238 3.8 23:18:05 10° W 23:22:14 73° N 23:26:23 10° ENE
STARLINK-1113 3.5 23:18:47 10° WNW 23:22:56 74° SSW 23:25:12 26° ESE
Cosmos 2082 Rocket 3.9 23:18:52 10° NW 23:23:05 21° W 23:26:09 14° SW
SeaSat 1 2.9 23:18:40 10° NNE 23:23:33 62° NW 23:28:04 12° SW
STARLINK-1239 3.5 23:20:39 11° SW 23:24:31 64° SSE 23:28:38 10° ENE
Aureole 2 Rocket 3.2 23:23:16 24° WSW 23:24:46 42° WNW 23:27:43 10° NNE
EO 1 Del DPAF 3.9 23:23:00 10° N 23:26:41 49° WNW 23:28:38 24° SW
STARLINK-1201 3.8 23:23:06 10° W 23:27:14 71° N 23:31:24 10° ENE
Cosmos 1110 Rocket 4.3 23:23:40 18° SW 23:27:33 66° WNW 23:32:44 10° NNE
STARLINK-1119 3.5 23:23:46 10° WNW 23:27:55 71° SSW 23:29:59 28° SE
BREEZE-M DEB 3.6 23:25:25 11° WSW 23:28:38 63° SSE 23:39:30 10° E
STARLINK-1240 3.5 23:25:26 10° WSW 23:29:30 68° SSE 23:33:38 10° ENE
BREEZE-M DEB (TANK) 2.8 23:26:24 10° W 23:30:00 67° S 23:34:18 10° ESE
Cosmos 1867 4.5 23:25:07 10° NW 23:30:25 47° NE 23:35:41 10° ESE
Okean 2 4.0 23:29:56 25° SW 23:32:04 49° WNW 23:36:07 10° N
SWAS 4.4 23:27:51 10° NW 23:32:11 76° WSW 23:33:49 37° SSE
STARLINK-1206 3.9 23:28:05 10° W 23:32:13 70° N 23:36:23 10° ENE
STARLINK-1114 3.5 23:28:46 10° WNW 23:32:54 67° SSW 23:34:46 30° SE
STARLINK-1216 3.5 23:30:20 10° WSW 23:34:28 71° SSE 23:38:36 10° ENE
Cosmos 1455 Rocket 3.6 23:30:15 10° NNW 23:34:28 49° W 23:36:14 30° SSW
Cosmos 968 Rocket 3.5 23:30:03 10° NNW 23:35:16 78° ENE 23:38:01 28° SSE
ISS -1.5 23:33:12 10° W 23:34:16 15° WSW 23:34:16 15° WSW
Helios 1A 3.1 23:33:57 34° SSE 23:35:42 70° ENE 23:39:52 10° N
STARLINK-1205 3.9 23:33:04 10° W 23:37:13 69° N 23:41:22 10° ENE
STARLINK-1130 (DARKSAT) 3.5 23:33:43 10° WNW 23:37:50 64° SSW 23:39:32 33° SE
NOSS 2-2 (C) 3.1 23:37:49 38° SSW 23:39:09 77° SE 23:43:17 10° NE
STARLINK-1237 3.5 23:35:19 10° WSW 23:39:27 75° SSE 23:43:36 10° ENE
ATLAS 2AS CENTAUR R/B 3.8 23:35:54 24° SSE 23:39:32 35° ESE 23:46:30 10° NE
Cosmos 2369 Rocket 2.4 23:38:59 30° S 23:41:41 58° ESE 23:47:15 10° NE
STARLINK-1218 3.9 23:38:03 10° W 23:42:11 68° N 23:46:20 10° ENE
Cosmos 1842 3.9 23:40:42 28° SW 23:42:26 48° WNW 23:46:15 10° N
STARLINK-1084 3.6 23:38:43 10° WNW 23:42:48 60° SSW 23:44:18 35° SE
Cosmos 1486 Rocket 4.0 23:38:59 10° NNW 23:44:18 74° WSW 23:46:50 32° S
Nimbus 7 Rocket 4.5 23:38:17 10° NNE 23:44:25 87° WNW 23:48:08 25° SSW
STARLINK-1202 3.5 23:40:17 10° WSW 23:44:25 78° SSE 23:48:35 10° ENE
NOSS 3-2 (A) 4.1 23:37:21 10° NW 23:44:41 67° SW 23:50:12 23° SSE
Meteor 1-21 4.3 23:43:32 27° SSW 23:46:47 78° WNW 23:52:26 10° N
Cosmos 1025 Rocket 2.9 23:45:35 38° S 23:47:08 76° E 23:51:26 10° NNE
STARLINK-1254 3.9 23:43:03 10° W 23:47:11 67° N 23:51:20 10° E
STARLINK-1098 3.6 23:43:43 10° WNW 23:47:47 57° SSW 23:49:07 38° SSE
Cosmos 2315 Rocket 4.5 23:42:08 10° N 23:48:13 53° ENE 23:52:12 22° SE
Helios 1B rocket 3.8 23:48:04 10° NE 23:51:35 26° E 23:52:51 22° SE
USA 238 DEB 4.0 23:44:56 10° NW 23:51:59 60° SW 23:56:22 25° SSE
USA 238 3.9 23:45:01 10° NW 23:52:04 61° SW 23:56:30 25° SSE
STARLINK-1231 4.0 23:48:04 10° W 23:52:12 67° N 23:56:21 10° E
Cosmos 1943 Rocket 2.1 23:49:04 26° SSW 23:52:22 89° ESE 23:58:00 10° NNE
STARLINK-1123 3.7 23:48:42 10° WNW 23:52:45 54° SSW 23:53:53 39° SSE
SL-8 R/B 3.9 23:49:02 10° W 23:53:40 47° SSW 23:55:49 28° SE
STARLINK-1246 3.5 23:50:13 10° WSW 23:54:22 85° SSE 23:58:32 10° ENE
